Regional Weather Roundup
Issued by NWS

Home | Current Version | Previous Version | Text Only | Print | Product List | Glossary On
Versions: 1 2 3 4 5 6 7 8 9 10 11 12 13 14 15 16 17 18 19 20 21 22 23 24 25 26 27 28 29 30 31 32 33 34 35 36 37 38 39 40 41 42 43 44 45 46 47 48 49 50
000
ASUS43 KLMK 231902
RWRKY
KENTUCKY REGIONAL WEATHER ROUNDUP
NATIONAL WEATHER SERVICE LOUISVILLE KY
300 PM EDT SAT JUN 23 2018

NOTE "FAIR" INDICATES FEW OR NO CLOUDS BELOW 12,000 FEET
WITH NO SIGNIFICANT WEATHER AND/OR OBSTRUCTIONS TO VISIBILITY.

KYZ001>023-026-027-061>063-070>075-232000-
WESTERN AND SOUTH CENTRAL KENTUCKY

CITY           SKY/WX    TMP DP  RH WIND       PRES   REMARKS
PADUCAH        FAIR      83  70  64 S10       29.81S
HENDERSON      PTSUNNY   79  67  66 S8        29.82R
OWENSBORO      PTSUNNY   78  69  73 SW9       29.83R
HOPKINSVILLE   PTSUNNY   81  71  70 S12       29.84S
BOWLING GREEN  FAIR      85  68  56 SW13      29.83S
GLASGOW        NOT AVBL
$$

KYZ024-025-028>034-038-045-046-053-232000-
NORTH CENTRAL KENTUCKY

CITY           SKY/WX    TMP DP  RH WIND       PRES   REMARKS
LOUISVILLE/SDF PTSUNNY   81  66  60 W12       29.81F
LOUISVILLE/LOU PTSUNNY   81  67  62 SW12G22   29.82F
FORT KNOX      FAIR      81  66  61 W12       29.82F
$$

KYZ035>037-039>044-047>052-055>060-089>105-232000-
NORTHEAST KENTUCKY

CITY           SKY/WX    TMP DP  RH WIND       PRES   REMARKS
LEXINGTON      PTSUNNY   80  66  62 SW10      29.85S
COVINGTON      CLOUDY    77  65  66 SW13      29.80F
FRANKFORT      CLOUDY    79  64  60 SW8G18    29.82F
$$

KYZ054-064>069-076>088-106>120-232000-
SOUTHEAST KENTUCKY

CITY           SKY/WX    TMP DP  RH WIND       PRES   REMARKS
JACKSON        PTSUNNY   78  67  68 VRB6      29.88S
LONDON         PTSUNNY   81  67  62 SW9G21    29.88F
SOMERSET       NOT AVBL
MIDDLESBORO    FAIR      84  66  55 S8        29.91S
MONTICELLO     FAIR      86  69  56 S9G18     29.87F HX  90
$$




USA.gov is the U.S. government's official web portal to all federal, state and local government web resources and services.